TimeCDT,TemperatureF,Dew PointF,Humidity,Sea Level PressureIn,VisibilityMPH,Wind Direction,Wind SpeedMPH,Gust SpeedMPH,PrecipitationIn,Events,Conditions,WindDirDegrees,DateUTC
12:52 AM,73.0,70.0,90,29.81,10.0,West,4.6,-,N/A,,Mostly Cloudy,280,2013-07-20 05:52:00
1:52 AM,72.0,69.1,91,29.81,10.0,Calm,Calm,-,N/A,,Partly Cloudy,0,2013-07-20 06:52:00
2:52 AM,72.0,68.0,87,29.81,10.0,Calm,Calm,-,N/A,,Clear,0,2013-07-20 07:52:00
3:52 AM,71.1,66.9,87,29.81,10.0,NNW,4.6,-,N/A,,Clear,330,2013-07-20 08:52:00
4:52 AM,68.0,64.9,90,29.82,10.0,Calm,Calm,-,N/A,,Clear,0,2013-07-20 09:52:00
5:52 AM,68.0,64.0,87,29.83,10.0,NNW,3.5,-,N/A,,Clear,330,2013-07-20 10:52:00
6:52 AM,71.1,64.0,78,29.86,10.0,North,4.6,-,N/A,,Clear,360,2013-07-20 11:52:00
7:52 AM,73.9,64.0,71,29.86,10.0,North,6.9,-,N/A,,Clear,360,2013-07-20 12:52:00
8:52 AM,77.0,66.0,69,29.87,10.0,North,4.6,-,N/A,,Clear,10,2013-07-20 13:52:00
9:52 AM,81.0,66.0,60,29.88,10.0,Variable,3.5,-,N/A,,Clear,0,2013-07-20 14:52:00
10:52 AM,82.9,63.0,51,29.90,10.0,NNW,8.1,-,N/A,,Clear,340,2013-07-20 15:52:00
11:52 AM,84.0,60.1,44,29.90,10.0,North,5.8,-,N/A,,Clear,10,2013-07-20 16:52:00
12:52 PM,84.9,61.0,44,29.89,10.0,Calm,Calm,-,N/A,,Clear,0,2013-07-20 17:52:00
1:52 PM,86.0,62.1,44,29.88,10.0,NNW,6.9,-,N/A,,Clear,340,2013-07-20 18:52:00
2:52 PM,86.0,60.1,41,29.87,10.0,WNW,10.4,-,N/A,,Clear,300,2013-07-20 19:52:00
3:52 PM,87.1,61.0,41,29.86,10.0,North,4.6,-,N/A,,Partly Cloudy,10,2013-07-20 20:52:00
4:52 PM,86.0,62.1,44,29.85,10.0,NW,5.8,-,N/A,,Clear,320,2013-07-20 21:52:00
5:52 PM,84.9,62.1,46,29.85,10.0,NW,8.1,-,N/A,,Partly Cloudy,320,2013-07-20 22:52:00
6:52 PM,80.1,64.0,58,29.87,10.0,NNW,3.5,-,N/A,,Clear,340,2013-07-20 23:52:00
7:52 PM,79.0,63.0,58,29.88,10.0,East,5.8,-,N/A,,Overcast,80,2013-07-21 00:52:00
8:20 PM,77.0,69.8,78,29.91,10.0,ENE,11.5,-,N/A,Thunderstorm,Overcast,60,2013-07-21 01:20:00
8:41 PM,71.6,66.2,83,29.94,4.0,NNW,16.1,28.8,0.11,Rain-Thunderstorm,Thunderstorms and Rain,330,2013-07-21 01:41:00
8:44 PM,69.8,66.2,88,29.94,1.8,NW,13.8,28.8,0.22,Rain-Thunderstorm,Thunderstorms and Rain,320,2013-07-21 01:44:00
8:52 PM,68.0,64.9,90,29.94,0.8,NE,24.2,34.5,0.60,Rain-Thunderstorm,Heavy Thunderstorms and Rain,40,2013-07-21 01:52:00
8:55 PM,68.0,64.4,88,29.96,1.0,NE,17.3,34.5,0.05,Rain-Thunderstorm,Heavy Thunderstorms and Rain,40,2013-07-21 01:55:00
8:58 PM,68.0,64.4,88,29.96,1.0,NE,16.1,34.5,0.12,Rain,Heavy Rain,50,2013-07-21 01:58:00
9:06 PM,68.0,62.6,83,29.96,3.0,East,15.0,-,0.14,Rain,Rain,100,2013-07-21 02:06:00
9:11 PM,68.0,62.6,83,29.97,9.0,ESE,13.8,-,0.14,Rain,Light Rain,110,2013-07-21 02:11:00
9:52 PM,68.0,63.0,84,29.95,10.0,Variable,5.8,-,0.14,,Partly Cloudy,0,2013-07-21 02:52:00
10:52 PM,68.0,64.9,90,29.93,10.0,WNW,4.6,-,N/A,,Mostly Cloudy,290,2013-07-21 03:52:00
11:52 PM,68.0,66.0,93,29.94,10.0,NE,3.5,-,0.00,,Overcast,50,2013-07-21 04:52:00